DELTA 1 DEB, 10871

Orbit data source: Space-Track

DELTA 1 DEB, 10871 is space debris in SSO originally from a launch on Thu, 29 Jul 1976 UTC launched from the Air Force Western Test Range (AFWTR). Debris objects in space refer to the collection of defunct objects orbiting the Earth. Examples of debris include non-operational satellites, rocket bodies, and fragments generated from explosions, collisions, or faulty payload assembly.

Loading next visibility...
Identifier
10871, 1976-077CZ
Orbit
SSO
Country
Flag of USUS
Related business
Manufacturer
Unknown
Mission
Spacecraft
Bus & Motor
Unknown
Mass
Unknown
Launch date (UTC)
1976-07-29 (49 years ago)
Launch vehicle
Unknown
Launch site
Air Force Western Test Range (AFWTR)
Object type
Payload
Rocket body
Debris
Shape & HBR
Unknown shape, 0.1 m
Radar Cross Section
Small (<0.1 m²)

Expand to show TLE details & history
Last TLE update: 1 day ago

TLE from 1 day ago
0 DELTA 1 DEB
1 10871U 76077CZ  25346.87908313  .00000453  00000-0  33779-2 0  9996
2 10871 101.8674 324.9666 0271067 117.0915 259.9788 12.37519084224319
Epoch: 2025-12-12T21:05Z
TLE epoch observation values (Epoch: 2025-12-12T21:05:52.782Z)
Latitude
13.69736°
Longitude
-76.2392°
Altitude
1,561.797 km
Speed
7.068 km/s
True Right ascension
21h 28m 10s
True Declination
13° 37' 35"
Sunlit
Object was in daylight at epoch
Visualization orbit readout
Latitude
Unknown
Longitude
Unknown
Altitude
Unknown
Speed
Unknown
Apparent Right ascension
Unknown
Apparent Declination
Unknown
Sunlit
N/A
Visualization observer readout
Local Sidereal Time
01:11:31
Azimuth
Unknown
Elevation
Unknown
Doppler factor
Unknown
Orbital elements
Apogee altitude
1,728.654 km
Perigee altitude
1,300.756 km
Semi-major axis
7,892.842 km
Eccentricity
0.02711
Inclination
101.8674°
RAAN
324.9666°
Arg. of periapsis
117.0915°
True anomaly
256.93935°
Mean anomaly
259.9788°
Eccentric anomaly
258.45711°
Mean motion
3.09523 °/min
Orbital period
116.31 mins
BSTAR
0.0033779
Loading maneuver chart data...
Computing Atmospheric mass density...
Loading historical data...
Loading historical data...
Loading historical data...
Loading historical data...
Loading historical data...
Loading historical data...
Loading historical data...

Documentation

Showing up to 5 results
|